{"data":{"norad_id":52861,"epoch":"2026-09-20T04:09:33.545088Z","epoch_age_seconds":97097,"freshness":"FRESH","line1":"1 52861U 22062AH  26263.17330492  .00000203  00000+0  18301-4 0  9993","line2":"2 52861  53.1597 215.3275 0001294  89.4921 270.6228 15.31700267235502","mean_motion":15.31700267,"eccentricity":0.0001294,"inclination_deg":53.1597,"raan_deg":215.3275,"arg_perigee_deg":89.4921,"mean_anomaly_deg":270.6228,"bstar":1.8301e-5,"rev_number":23550,"period_min":94.013171573078,"perigee_km":469.85295473247,"apogee_km":471.62544389285,"semimajor_km":6848.8761993127,"source":"CELESTRAK","updated_at":"2026-09-20T09:00:40.117110Z"}}